Location: Newark
(43.4306°N, 0.3089°E)
Time: 08:12:36
(UTC+00:00)

S-56A Canister/Altair - Pass Details

Date: 27 August 2019
Orbit: 633 x 2499 km, 38.9° (Epoch: 15 September)

Event Time Altitude Azimuth Distance (km) Brightness Sun altitude
Rises 19:22:47 0° 236° (SW) 3,877 11.7 -7.6°
Reaches altitude 10° 19:26:04 10° 228° (SW) 2,653 10.6 -8.2°
Maximum altitude 19:31:26 35° 164° (SSE) 1,215 8.3 -9.1°
Enters shadow 19:35:18 12° 101° (E) 1,955 9.0 -9.7°
Drops below altitude 10° 19:35:40 10° 99° (E) 2,086 - -9.8°
Sets 19:37:58 0° 89° (E) 2,939 - -10.2°
